Home > Weather > Erlangen > Past weeks

Flag for Germany Weather for the Past 2 Weeks in Erlangen, Bavaria, Germany

Now
39 °F

Light rain. Partly cloudy.


Feels Like: 33 °F
Forecast: 38 / 45 °F
Wind: 9 mph from Southeast

Location: Nuernberg

Current Time: Feb 13, 2016 at 9:22:27 PM

Latest Report: Feb 13, 2016 at 8:50 PM


Visibility: 2 mi

Pressure: 29.15 "Hg

Humidity: 93%

Dew point: 37 °F

Location of ErlangenLocation

Historic Weather in Erlangen — Graph

°F

Erlangen Temperature Yesterday

Maximum temperature yesterday: 43 °F (at 2:50 PM)
Minimum temperature yesterday: 30 °F (at 9:50 PM)
Average temperature yesterday: 36 °F

High & Low Weather Summary for the Past Weeks

 TemperatureHumidityPressure
High54 °F (Feb 1, 6:50 AM)100% (Jan 31, 10:20 PM)30.36 "Hg (Jan 31, 10:20 PM)
Low28 °F (Feb 13, 2:50 AM)50% (Feb 7, 1:20 PM)29.15 "Hg (Feb 9, 6:50 PM)
Average41 °F82%29.84 "Hg
* Reported Jan 29 8:20 PM — Feb 13 8:20 PM, Erlangen, Weather by CustomWeather, © 2016

Note: Actual official high and low records may vary slightly from our data, if they occured in-between our weather recording intervals... More about our weather records

Advertising

Erlangen Weather History for the Previous 24 Hours

 ConditionsComfort  
Time TempWeatherWind HumidityBarometerVisibility
8:20 PM
Sat, Feb 13
39 °FLight rain. Passing clouds.7 mph93%29.18 "Hg5 mi
7:50 PM37 °FLight rain. Overcast.8 mph100%29.18 "Hg5 mi
7:20 PM39 °FLight rain. Passing clouds.9 mph93%29.18 "Hg5 mi
6:50 PM39 °FLight rain. Passing clouds.7 mph93%29.18 "Hg6 mi
6:20 PM39 °FMostly cloudy.8 mph87%29.18 "HgN/A
5:50 PM39 °FLight rain. Partly cloudy.7 mph87%29.21 "HgN/A
5:20 PM39 °FLight rain. Mostly cloudy.8 mph87%29.21 "HgN/A
4:50 PM39 °FMore clouds than sun.9 mph87%29.21 "HgN/A
4:20 PM39 °FPartly sunny.8 mph87%29.21 "HgN/A
3:50 PM41 °FBroken clouds.8 mph81%29.24 "HgN/A
3:20 PM41 °FBroken clouds.8 mph81%29.27 "HgN/A
2:50 PM39 °FBroken clouds.9 mph81%29.27 "HgN/A
2:20 PM39 °FBroken clouds.7 mph81%29.27 "HgN/A
1:50 PM39 °FBroken clouds.7 mph81%29.27 "HgN/A
1:20 PM39 °FPartly sunny.7 mph81%29.30 "HgN/A
12:50 PM37 °FPartly sunny.7 mph81%29.30 "HgN/A
12:20 PM37 °FOvercast.6 mph81%29.33 "HgN/A
11:50 AM36 °FOvercast.5 mph87%29.33 "HgN/A
11:20 AM36 °FOvercast.5 mph87%29.33 "HgN/A
10:50 AM36 °FOvercast.6 mph87%29.36 "HgN/A
10:20 AM34 °FOvercast.7 mph87%29.36 "HgN/A
9:50 AM34 °FOvercast.7 mph87%29.36 "HgN/A
9:20 AM34 °FOvercast.7 mph87%29.36 "HgN/A
8:50 AM32 °FOvercast.6 mph87%29.36 "HgN/A
8:20 AM32 °FPartly sunny.6 mph87%29.36 "HgN/A
7:50 AM32 °FPartly sunny.7 mph87%29.36 "HgN/A
7:20 AM32 °FPassing clouds.7 mph87%29.36 "HgN/A
6:50 AM32 °FPartly cloudy.7 mph87%29.36 "HgN/A
6:20 AM30 °FPassing clouds.7 mph86%29.36 "HgN/A
5:50 AM30 °FPassing clouds.6 mph93%29.36 "HgN/A
5:20 AM30 °FClear.7 mph93%29.36 "Hg10 mi
4:20 AM32 °FClear.7 mph87%29.36 "Hg10 mi
3:20 AM30 °FClear.7 mph86%29.36 "Hg10 mi
2:50 AM28 °FPassing clouds.7 mph93%29.36 "HgN/A
2:20 AM30 °FClear.7 mph93%29.36 "Hg10 mi
1:50 AM30 °FClear.6 mph93%29.36 "Hg10 mi
1:20 AM30 °FClear.5 mph93%29.36 "Hg10 mi
12:50 AM30 °FPassing clouds.7 mph86%29.36 "HgN/A
12:20 AM30 °FPassing clouds.6 mph93%29.36 "HgN/A
11:50 PM
Fri, Feb 12
32 °FClear.6 mph87%29.39 "Hg10 mi
11:20 PM32 °FClear.7 mph87%29.39 "Hg10 mi
10:20 PM30 °FPassing clouds.7 mph93%29.39 "HgN/A
9:50 PM30 °FPassing clouds.5 mph86%29.39 "HgN/A
9:20 PM32 °FPassing clouds.5 mph80%29.42 "HgN/A
Weather by CustomWeather, © 2016

See weather overviewHow to use our weather pages